Index of /20260502/WXO-DD/model_caps/3km/12/007
Name Last modified Size Description
Parent Directory -
20260502T12Z_MSC_CAPS_AbsoluteVorticity_IsbL-0250_RLatLon0.03_PT007H.grib2 2026-05-02 18:06 1.0M
20260502T12Z_MSC_CAPS_AbsoluteVorticity_IsbL-0500_RLatLon0.03_PT007H.grib2 2026-05-02 18:06 1.1M
20260502T12Z_MSC_CAPS_AbsoluteVorticity_IsbL-0700_RLatLon0.03_PT007H.grib2 2026-05-02 18:06 1.0M
20260502T12Z_MSC_CAPS_AbsoluteVorticity_IsbL-0850_RLatLon0.03_PT007H.grib2 2026-05-02 18:06 1.2M
20260502T12Z_MSC_CAPS_AbsoluteVorticity_IsbL-1000_RLatLon0.03_PT007H.grib2 2026-05-02 18:06 1.3M
20260502T12Z_MSC_CAPS_AirDensity_AGL-120m_RLatLon0.03_PT007H.grib2 2026-05-02 18:06 1.4M
20260502T12Z_MSC_CAPS_AirDensity_AGL-40m_RLatLon0.03_PT007H.grib2 2026-05-02 18:06 1.4M
20260502T12Z_MSC_CAPS_AirDensity_AGL-80m_RLatLon0.03_PT007H.grib2 2026-05-02 18:06 1.4M
20260502T12Z_MSC_CAPS_AirTemp_AGL-120m_RLatLon0.03_PT007H.grib2 2026-05-02 18:06 1.4M
20260502T12Z_MSC_CAPS_AirTemp_AGL-2m_RLatLon0.03_PT007H.grib2 2026-05-02 18:06 2.1M
20260502T12Z_MSC_CAPS_AirTemp_AGL-40m_RLatLon0.03_PT007H.grib2 2026-05-02 18:06 1.5M
20260502T12Z_MSC_CAPS_AirTemp_AGL-80m_RLatLon0.03_PT007H.grib2 2026-05-02 18:06 1.4M
20260502T12Z_MSC_CAPS_AirTemp_IsbL-0050_RLatLon0.03_PT007H.grib2 2026-05-02 18:06 699K
20260502T12Z_MSC_CAPS_AirTemp_IsbL-0100_RLatLon0.03_PT007H.grib2 2026-05-02 18:06 731K
20260502T12Z_MSC_CAPS_AirTemp_IsbL-0150_RLatLon0.03_PT007H.grib2 2026-05-02 18:06 760K
20260502T12Z_MSC_CAPS_AirTemp_IsbL-0175_RLatLon0.03_PT007H.grib2 2026-05-02 18:06 775K
20260502T12Z_MSC_CAPS_AirTemp_IsbL-0200_RLatLon0.03_PT007H.grib2 2026-05-02 18:06 792K
20260502T12Z_MSC_CAPS_AirTemp_IsbL-0225_RLatLon0.03_PT007H.grib2 2026-05-02 18:06 792K
20260502T12Z_MSC_CAPS_AirTemp_IsbL-0250_RLatLon0.03_PT007H.grib2 2026-05-02 18:06 782K
20260502T12Z_MSC_CAPS_AirTemp_IsbL-0275_RLatLon0.03_PT007H.grib2 2026-05-02 18:06 1.0M
20260502T12Z_MSC_CAPS_AirTemp_IsbL-0300_RLatLon0.03_PT007H.grib2 2026-05-02 18:06 1.0M
20260502T12Z_MSC_CAPS_AirTemp_IsbL-0350_RLatLon0.03_PT007H.grib2 2026-05-02 18:06 754K
20260502T12Z_MSC_CAPS_AirTemp_IsbL-0400_RLatLon0.03_PT007H.grib2 2026-05-02 18:06 758K
20260502T12Z_MSC_CAPS_AirTemp_IsbL-0450_RLatLon0.03_PT007H.grib2 2026-05-02 18:06 768K
20260502T12Z_MSC_CAPS_AirTemp_IsbL-0500_RLatLon0.03_PT007H.grib2 2026-05-02 18:06 781K
20260502T12Z_MSC_CAPS_AirTemp_IsbL-0550_RLatLon0.03_PT007H.grib2 2026-05-02 18:06 794K
20260502T12Z_MSC_CAPS_AirTemp_IsbL-0600_RLatLon0.03_PT007H.grib2 2026-05-02 18:06 966K
20260502T12Z_MSC_CAPS_AirTemp_IsbL-0650_RLatLon0.03_PT007H.grib2 2026-05-02 18:06 1.0M
20260502T12Z_MSC_CAPS_AirTemp_IsbL-0700_RLatLon0.03_PT007H.grib2 2026-05-02 18:06 1.0M
20260502T12Z_MSC_CAPS_AirTemp_IsbL-0750_RLatLon0.03_PT007H.grib2 2026-05-02 18:06 1.0M
20260502T12Z_MSC_CAPS_AirTemp_IsbL-0800_RLatLon0.03_PT007H.grib2 2026-05-02 18:06 1.0M
20260502T12Z_MSC_CAPS_AirTemp_IsbL-0850_RLatLon0.03_PT007H.grib2 2026-05-02 18:06 1.1M
20260502T12Z_MSC_CAPS_AirTemp_IsbL-0875_RLatLon0.03_PT007H.grib2 2026-05-02 18:06 1.1M
20260502T12Z_MSC_CAPS_AirTemp_IsbL-0900_RLatLon0.03_PT007H.grib2 2026-05-02 18:06 1.1M
20260502T12Z_MSC_CAPS_AirTemp_IsbL-0925_RLatLon0.03_PT007H.grib2 2026-05-02 18:06 1.1M
20260502T12Z_MSC_CAPS_AirTemp_IsbL-0950_RLatLon0.03_PT007H.grib2 2026-05-02 18:06 1.2M
20260502T12Z_MSC_CAPS_AirTemp_IsbL-0970_RLatLon0.03_PT007H.grib2 2026-05-02 18:06 1.1M
20260502T12Z_MSC_CAPS_AirTemp_IsbL-0985_RLatLon0.03_PT007H.grib2 2026-05-02 18:06 1.1M
20260502T12Z_MSC_CAPS_AirTemp_IsbL-1000_RLatLon0.03_PT007H.grib2 2026-05-02 18:06 1.0M
20260502T12Z_MSC_CAPS_AirTemp_IsbL-1015_RLatLon0.03_PT007H.grib2 2026-05-02 18:06 1.1M
20260502T12Z_MSC_CAPS_Albedo_Sfc_RLatLon0.03_PT007H.grib2 2026-05-02 18:06 2.7M
20260502T12Z_MSC_CAPS_CAPE_Sfc_RLatLon0.03_PT007H.grib2 2026-05-02 18:06 136K
20260502T12Z_MSC_CAPS_CloudWater_EAtm_RLatLon0.03_PT007H.grib2 2026-05-02 18:06 1.4M
20260502T12Z_MSC_CAPS_ConvectivePrecip-Accum_Sfc_RLatLon0.03_PT007H.grib2 2026-05-02 18:06 1.8M
20260502T12Z_MSC_CAPS_DewPointDepression_AGL-120m_RLatLon0.03_PT007H.grib2 2026-05-02 18:06 2.0M
20260502T12Z_MSC_CAPS_DewPointDepression_AGL-2m_RLatLon0.03_PT007H.grib2 2026-05-02 18:06 2.1M
20260502T12Z_MSC_CAPS_DewPointDepression_AGL-40m_RLatLon0.03_PT007H.grib2 2026-05-02 18:06 2.0M
20260502T12Z_MSC_CAPS_DewPointDepression_AGL-80m_RLatLon0.03_PT007H.grib2 2026-05-02 18:06 2.0M
20260502T12Z_MSC_CAPS_DewPointDepression_IsbL-0050_RLatLon0.03_PT007H.grib2 2026-05-02 18:06 12K
20260502T12Z_MSC_CAPS_DewPointDepression_IsbL-0100_RLatLon0.03_PT007H.grib2 2026-05-02 18:06 107K
20260502T12Z_MSC_CAPS_DewPointDepression_IsbL-0150_RLatLon0.03_PT007H.grib2 2026-05-02 18:06 107K
20260502T12Z_MSC_CAPS_DewPointDepression_IsbL-0175_RLatLon0.03_PT007H.grib2 2026-05-02 18:06 249K
20260502T12Z_MSC_CAPS_DewPointDepression_IsbL-0200_RLatLon0.03_PT007H.grib2 2026-05-02 18:06 384K
20260502T12Z_MSC_CAPS_DewPointDepression_IsbL-0225_RLatLon0.03_PT007H.grib2 2026-05-02 18:06 615K
20260502T12Z_MSC_CAPS_DewPointDepression_IsbL-0250_RLatLon0.03_PT007H.grib2 2026-05-02 18:06 821K
20260502T12Z_MSC_CAPS_DewPointDepression_IsbL-0275_RLatLon0.03_PT007H.grib2 2026-05-02 18:06 961K
20260502T12Z_MSC_CAPS_DewPointDepression_IsbL-0300_RLatLon0.03_PT007H.grib2 2026-05-02 18:06 1.0M
20260502T12Z_MSC_CAPS_DewPointDepression_IsbL-0350_RLatLon0.03_PT007H.grib2 2026-05-02 18:06 1.0M
20260502T12Z_MSC_CAPS_DewPointDepression_IsbL-0400_RLatLon0.03_PT007H.grib2 2026-05-02 18:06 1.1M
20260502T12Z_MSC_CAPS_DewPointDepression_IsbL-0450_RLatLon0.03_PT007H.grib2 2026-05-02 18:06 1.1M
20260502T12Z_MSC_CAPS_DewPointDepression_IsbL-0500_RLatLon0.03_PT007H.grib2 2026-05-02 18:06 1.1M
20260502T12Z_MSC_CAPS_DewPointDepression_IsbL-0550_RLatLon0.03_PT007H.grib2 2026-05-02 18:06 1.1M
20260502T12Z_MSC_CAPS_DewPointDepression_IsbL-0600_RLatLon0.03_PT007H.grib2 2026-05-02 18:06 1.1M
20260502T12Z_MSC_CAPS_DewPointDepression_IsbL-0650_RLatLon0.03_PT007H.grib2 2026-05-02 18:06 1.2M
20260502T12Z_MSC_CAPS_DewPointDepression_IsbL-0700_RLatLon0.03_PT007H.grib2 2026-05-02 18:06 1.2M
20260502T12Z_MSC_CAPS_DewPointDepression_IsbL-0750_RLatLon0.03_PT007H.grib2 2026-05-02 18:06 1.2M
20260502T12Z_MSC_CAPS_DewPointDepression_IsbL-0800_RLatLon0.03_PT007H.grib2 2026-05-02 18:06 1.3M
20260502T12Z_MSC_CAPS_DewPointDepression_IsbL-0850_RLatLon0.03_PT007H.grib2 2026-05-02 18:06 1.3M
20260502T12Z_MSC_CAPS_DewPointDepression_IsbL-0875_RLatLon0.03_PT007H.grib2 2026-05-02 18:06 1.3M
20260502T12Z_MSC_CAPS_DewPointDepression_IsbL-0900_RLatLon0.03_PT007H.grib2 2026-05-02 18:06 1.3M
20260502T12Z_MSC_CAPS_DewPointDepression_IsbL-0925_RLatLon0.03_PT007H.grib2 2026-05-02 18:06 1.3M
20260502T12Z_MSC_CAPS_DewPointDepression_IsbL-0950_RLatLon0.03_PT007H.grib2 2026-05-02 18:06 1.3M
20260502T12Z_MSC_CAPS_DewPointDepression_IsbL-0970_RLatLon0.03_PT007H.grib2 2026-05-02 18:06 1.3M
20260502T12Z_MSC_CAPS_DewPointDepression_IsbL-0985_RLatLon0.03_PT007H.grib2 2026-05-02 18:06 1.3M
20260502T12Z_MSC_CAPS_DewPointDepression_IsbL-1000_RLatLon0.03_PT007H.grib2 2026-05-02 18:06 1.3M
20260502T12Z_MSC_CAPS_DewPointDepression_IsbL-1015_RLatLon0.03_PT007H.grib2 2026-05-02 18:06 1.3M
20260502T12Z_MSC_CAPS_DewPoint_AGL-120m_RLatLon0.03_PT007H.grib2 2026-05-02 18:06 3.6M
20260502T12Z_MSC_CAPS_DewPoint_AGL-2m_RLatLon0.03_PT007H.grib2 2026-05-02 18:06 2.1M
20260502T12Z_MSC_CAPS_DewPoint_AGL-40m_RLatLon0.03_PT007H.grib2 2026-05-02 18:06 3.7M
20260502T12Z_MSC_CAPS_DewPoint_AGL-80m_RLatLon0.03_PT007H.grib2 2026-05-02 18:06 3.6M
20260502T12Z_MSC_CAPS_DownwardLongwaveRadiationFlux-Accum_Sfc_RLatLon0.03_PT007H.grib2 2026-05-02 18:06 2.4M
20260502T12Z_MSC_CAPS_DownwardShortwaveRadiationFlux-Accum_NTAtm_RLatLon0.03_PT007H.grib2 2026-05-02 18:06 394K
20260502T12Z_MSC_CAPS_DownwardShortwaveRadiationFlux-Accum_Sfc_RLatLon0.03_PT007H.grib2 2026-05-02 18:06 2.2M
20260502T12Z_MSC_CAPS_FreezingRain-Accum_Sfc_RLatLon0.03_PT007H.grib2 2026-05-02 18:06 326K
20260502T12Z_MSC_CAPS_GeopotentialHeight_IsbL-0050_RLatLon0.03_PT007H.grib2 2026-05-02 18:06 637K
20260502T12Z_MSC_CAPS_GeopotentialHeight_IsbL-0100_RLatLon0.03_PT007H.grib2 2026-05-02 18:06 767K
20260502T12Z_MSC_CAPS_GeopotentialHeight_IsbL-0150_RLatLon0.03_PT007H.grib2 2026-05-02 18:06 729K
20260502T12Z_MSC_CAPS_GeopotentialHeight_IsbL-0175_RLatLon0.03_PT007H.grib2 2026-05-02 18:06 743K
20260502T12Z_MSC_CAPS_GeopotentialHeight_IsbL-0200_RLatLon0.03_PT007H.grib2 2026-05-02 18:06 753K
20260502T12Z_MSC_CAPS_GeopotentialHeight_IsbL-0225_RLatLon0.03_PT007H.grib2 2026-05-02 18:06 763K
20260502T12Z_MSC_CAPS_GeopotentialHeight_IsbL-0250_RLatLon0.03_PT007H.grib2 2026-05-02 18:06 774K
20260502T12Z_MSC_CAPS_GeopotentialHeight_IsbL-0275_RLatLon0.03_PT007H.grib2 2026-05-02 18:06 782K
20260502T12Z_MSC_CAPS_GeopotentialHeight_IsbL-0300_RLatLon0.03_PT007H.grib2 2026-05-02 18:06 786K
20260502T12Z_MSC_CAPS_GeopotentialHeight_IsbL-0350_RLatLon0.03_PT007H.grib2 2026-05-02 18:06 785K
20260502T12Z_MSC_CAPS_GeopotentialHeight_IsbL-0400_RLatLon0.03_PT007H.grib2 2026-05-02 18:06 778K
20260502T12Z_MSC_CAPS_GeopotentialHeight_IsbL-0450_RLatLon0.03_PT007H.grib2 2026-05-02 18:06 767K
20260502T12Z_MSC_CAPS_GeopotentialHeight_IsbL-0500_RLatLon0.03_PT007H.grib2 2026-05-02 18:06 758K
20260502T12Z_MSC_CAPS_GeopotentialHeight_IsbL-0550_RLatLon0.03_PT007H.grib2 2026-05-02 18:06 750K
20260502T12Z_MSC_CAPS_GeopotentialHeight_IsbL-0600_RLatLon0.03_PT007H.grib2 2026-05-02 18:06 636K
20260502T12Z_MSC_CAPS_GeopotentialHeight_IsbL-0650_RLatLon0.03_PT007H.grib2 2026-05-02 18:06 636K
20260502T12Z_MSC_CAPS_GeopotentialHeight_IsbL-0700_RLatLon0.03_PT007H.grib2 2026-05-02 18:06 638K
20260502T12Z_MSC_CAPS_GeopotentialHeight_IsbL-0750_RLatLon0.03_PT007H.grib2 2026-05-02 18:06 814K
20260502T12Z_MSC_CAPS_GeopotentialHeight_IsbL-0800_RLatLon0.03_PT007H.grib2 2026-05-02 18:06 816K
20260502T12Z_MSC_CAPS_GeopotentialHeight_IsbL-0850_RLatLon0.03_PT007H.grib2 2026-05-02 18:06 826K
20260502T12Z_MSC_CAPS_GeopotentialHeight_IsbL-0875_RLatLon0.03_PT007H.grib2 2026-05-02 18:06 832K
20260502T12Z_MSC_CAPS_GeopotentialHeight_IsbL-0900_RLatLon0.03_PT007H.grib2 2026-05-02 18:06 918K
20260502T12Z_MSC_CAPS_GeopotentialHeight_IsbL-0925_RLatLon0.03_PT007H.grib2 2026-05-02 18:06 929K
20260502T12Z_MSC_CAPS_GeopotentialHeight_IsbL-0950_RLatLon0.03_PT007H.grib2 2026-05-02 18:06 940K
20260502T12Z_MSC_CAPS_GeopotentialHeight_IsbL-0970_RLatLon0.03_PT007H.grib2 2026-05-02 18:06 950K
20260502T12Z_MSC_CAPS_GeopotentialHeight_IsbL-0985_RLatLon0.03_PT007H.grib2 2026-05-02 18:06 959K
20260502T12Z_MSC_CAPS_GeopotentialHeight_IsbL-1000_RLatLon0.03_PT007H.grib2 2026-05-02 18:06 967K
20260502T12Z_MSC_CAPS_GeopotentialHeight_IsbL-1015_RLatLon0.03_PT007H.grib2 2026-05-02 18:06 1.0M
20260502T12Z_MSC_CAPS_GeopotentialHeight_Sfc_RLatLon0.03_PT007H.grib2 2026-05-02 18:06 1.0M
20260502T12Z_MSC_CAPS_IcePellets-Accum_Sfc_RLatLon0.03_PT007H.grib2 2026-05-02 18:06 32K
20260502T12Z_MSC_CAPS_LatentHeatNetFlux_Sfc_RLatLon0.03_PT007H.grib2 2026-05-02 18:06 1.9M
20260502T12Z_MSC_CAPS_LiftedIndex-MU-VT_IsbL-0500_RLatLon0.03_PT007H.grib2 2026-05-02 18:06 3.3M
20260502T12Z_MSC_CAPS_MixedLayerThickness_Sfc_RLatLon0.03_PT007H.nc 2026-05-02 18:11 16M
20260502T12Z_MSC_CAPS_NetLongwaveRadiationFlux-Accum_Sfc_RLatLon0.03_PT007H.grib2 2026-05-02 18:06 2.7M
20260502T12Z_MSC_CAPS_NetShortwaveRadiationFlux-Accum_Sfc_RLatLon0.03_PT007H.grib2 2026-05-02 18:06 2.2M
20260502T12Z_MSC_CAPS_PlanetaryBoundaryLayerHeight_Sfc_RLatLon0.03_PT007H.grib2 2026-05-02 18:06 2.8M
20260502T12Z_MSC_CAPS_Precip-Accum_Sfc_RLatLon0.03_PT007H.grib2 2026-05-02 18:06 2.9M
20260502T12Z_MSC_CAPS_PrecipRate_Sfc_RLatLon0.03_PT007H.grib2 2026-05-02 18:06 471K
20260502T12Z_MSC_CAPS_PrecipType-Instant_Sfc_RLatLon0.03_PT007H.grib2 2026-05-02 18:06 1.5M
20260502T12Z_MSC_CAPS_Pressure_MSL_RLatLon0.03_PT007H.grib2 2026-05-02 18:06 774K
20260502T12Z_MSC_CAPS_Pressure_Sfc_RLatLon0.03_PT007H.grib2 2026-05-02 18:06 1.2M
20260502T12Z_MSC_CAPS_RadiativeTemp_Sfc_RLatLon0.03_PT007H.grib2 2026-05-02 18:06 2.1M
20260502T12Z_MSC_CAPS_Rain-Accum_Sfc_RLatLon0.03_PT007H.grib2 2026-05-02 18:06 1.3M
20260502T12Z_MSC_CAPS_RelativeHumidity_AGL-120m_RLatLon0.03_PT007H.grib2 2026-05-02 18:06 2.8M
20260502T12Z_MSC_CAPS_RelativeHumidity_AGL-2m_RLatLon0.03_PT007H.grib2 2026-05-02 18:06 2.9M
20260502T12Z_MSC_CAPS_RelativeHumidity_AGL-40m_RLatLon0.03_PT007H.grib2 2026-05-02 18:06 2.8M
20260502T12Z_MSC_CAPS_RelativeHumidity_AGL-80m_RLatLon0.03_PT007H.grib2 2026-05-02 18:06 2.8M
20260502T12Z_MSC_CAPS_RelativeHumidity_IsbL-0050_RLatLon0.03_PT007H.grib2 2026-05-02 18:06 720K
20260502T12Z_MSC_CAPS_RelativeHumidity_IsbL-0100_RLatLon0.03_PT007H.grib2 2026-05-02 18:06 850K
20260502T12Z_MSC_CAPS_RelativeHumidity_IsbL-0150_RLatLon0.03_PT007H.grib2 2026-05-02 18:06 358K
20260502T12Z_MSC_CAPS_RelativeHumidity_IsbL-0175_RLatLon0.03_PT007H.grib2 2026-05-02 18:06 477K
20260502T12Z_MSC_CAPS_RelativeHumidity_IsbL-0200_RLatLon0.03_PT007H.grib2 2026-05-02 18:06 669K
20260502T12Z_MSC_CAPS_RelativeHumidity_IsbL-0225_RLatLon0.03_PT007H.grib2 2026-05-02 18:06 864K
20260502T12Z_MSC_CAPS_RelativeHumidity_IsbL-0250_RLatLon0.03_PT007H.grib2 2026-05-02 18:06 1.1M
20260502T12Z_MSC_CAPS_RelativeHumidity_IsbL-0275_RLatLon0.03_PT007H.grib2 2026-05-02 18:06 1.4M
20260502T12Z_MSC_CAPS_RelativeHumidity_IsbL-0300_RLatLon0.03_PT007H.grib2 2026-05-02 18:06 1.5M
20260502T12Z_MSC_CAPS_RelativeHumidity_IsbL-0350_RLatLon0.03_PT007H.grib2 2026-05-02 18:06 1.9M
20260502T12Z_MSC_CAPS_RelativeHumidity_IsbL-0400_RLatLon0.03_PT007H.grib2 2026-05-02 18:06 1.8M
20260502T12Z_MSC_CAPS_RelativeHumidity_IsbL-0450_RLatLon0.03_PT007H.grib2 2026-05-02 18:06 1.9M
20260502T12Z_MSC_CAPS_RelativeHumidity_IsbL-0500_RLatLon0.03_PT007H.grib2 2026-05-02 18:06 1.8M
20260502T12Z_MSC_CAPS_RelativeHumidity_IsbL-0550_RLatLon0.03_PT007H.grib2 2026-05-02 18:06 2.0M
20260502T12Z_MSC_CAPS_RelativeHumidity_IsbL-0600_RLatLon0.03_PT007H.grib2 2026-05-02 18:06 2.0M
20260502T12Z_MSC_CAPS_RelativeHumidity_IsbL-0650_RLatLon0.03_PT007H.grib2 2026-05-02 18:06 2.2M
20260502T12Z_MSC_CAPS_RelativeHumidity_IsbL-0700_RLatLon0.03_PT007H.grib2 2026-05-02 18:06 2.2M
20260502T12Z_MSC_CAPS_RelativeHumidity_IsbL-0750_RLatLon0.03_PT007H.grib2 2026-05-02 18:06 2.2M
20260502T12Z_MSC_CAPS_RelativeHumidity_IsbL-0800_RLatLon0.03_PT007H.grib2 2026-05-02 18:06 2.3M
20260502T12Z_MSC_CAPS_RelativeHumidity_IsbL-0850_RLatLon0.03_PT007H.grib2 2026-05-02 18:06 2.3M
20260502T12Z_MSC_CAPS_RelativeHumidity_IsbL-0875_RLatLon0.03_PT007H.grib2 2026-05-02 18:06 2.5M
20260502T12Z_MSC_CAPS_RelativeHumidity_IsbL-0900_RLatLon0.03_PT007H.grib2 2026-05-02 18:06 2.5M
20260502T12Z_MSC_CAPS_RelativeHumidity_IsbL-0925_RLatLon0.03_PT007H.grib2 2026-05-02 18:06 2.6M
20260502T12Z_MSC_CAPS_RelativeHumidity_IsbL-0950_RLatLon0.03_PT007H.grib2 2026-05-02 18:06 2.6M
20260502T12Z_MSC_CAPS_RelativeHumidity_IsbL-0970_RLatLon0.03_PT007H.grib2 2026-05-02 18:06 2.7M
20260502T12Z_MSC_CAPS_RelativeHumidity_IsbL-0985_RLatLon0.03_PT007H.grib2 2026-05-02 18:06 2.8M
20260502T12Z_MSC_CAPS_RelativeHumidity_IsbL-1000_RLatLon0.03_PT007H.grib2 2026-05-02 18:06 2.8M
20260502T12Z_MSC_CAPS_RelativeHumidity_IsbL-1015_RLatLon0.03_PT007H.grib2 2026-05-02 18:06 2.9M
20260502T12Z_MSC_CAPS_Runoff-Accum_Sfc_RLatLon0.03_PT007H.grib2 2026-05-02 18:06 305K
20260502T12Z_MSC_CAPS_SeaIceAreaFraction_Sfc_RLatLon0.03_PT007H.nc 2026-05-02 18:11 15M
20260502T12Z_MSC_CAPS_SeaIceCompressiveStrength_Sfc_RLatLon0.03_PT007H.nc 2026-05-02 18:11 15M
20260502T12Z_MSC_CAPS_SeaIceDivergence_Sfc_RLatLon0.03_PT007H.nc 2026-05-02 18:11 15M
20260502T12Z_MSC_CAPS_SeaIceInternalPressure_Sfc_RLatLon0.03_PT007H.nc 2026-05-02 18:11 15M
20260502T12Z_MSC_CAPS_SeaIceShear_Sfc_RLatLon0.03_PT007H.nc 2026-05-02 18:11 14M
20260502T12Z_MSC_CAPS_SeaIceSnowTemp_Sfc_RLatLon0.03_PT007H.nc 2026-05-02 18:11 14M
20260502T12Z_MSC_CAPS_SeaIceSnowVolume_Sfc_RLatLon0.03_PT007H.nc 2026-05-02 18:11 15M
20260502T12Z_MSC_CAPS_SeaIceVelocityX_Sfc_RLatLon0.03_PT007H.nc 2026-05-02 18:11 15M
20260502T12Z_MSC_CAPS_SeaIceVelocityY_Sfc_RLatLon0.03_PT007H.nc 2026-05-02 18:11 15M
20260502T12Z_MSC_CAPS_SeaIceVolume_Sfc_RLatLon0.03_PT007H.nc 2026-05-02 18:11 15M
20260502T12Z_MSC_CAPS_SeaSurfaceHeight_Sfc_RLatLon0.03_PT007H.nc 2026-05-02 18:11 16M
20260502T12Z_MSC_CAPS_SeaWaterSalinity_DBS-0.5m_RLatLon0.03_PT007H.nc 2026-05-02 18:11 16M
20260502T12Z_MSC_CAPS_SeaWaterSalinity_DBS-all_RLatLon0.03_PT007H.nc 2026-05-02 18:11 107M
20260502T12Z_MSC_CAPS_SeaWaterTemp_DBS-0.5m_RLatLon0.03_PT007H.nc 2026-05-02 18:11 14M
20260502T12Z_MSC_CAPS_SeaWaterTemp_DBS-all_RLatLon0.03_PT007H.nc 2026-05-02 18:11 88M
20260502T12Z_MSC_CAPS_SeaWaterVelocityX_DBS-0.5m_RLatLon0.03_PT007H.nc 2026-05-02 18:11 17M
20260502T12Z_MSC_CAPS_SeaWaterVelocityX_DBS-all_RLatLon0.03_PT007H.nc 2026-05-02 18:11 203M
20260502T12Z_MSC_CAPS_SeaWaterVelocityY_DBS-0.5m_RLatLon0.03_PT007H.nc 2026-05-02 18:11 17M
20260502T12Z_MSC_CAPS_SeaWaterVelocityY_DBS-all_RLatLon0.03_PT007H.nc 2026-05-02 18:11 211M
20260502T12Z_MSC_CAPS_SensibleHeatNetFlux_Sfc_RLatLon0.03_PT007H.grib2 2026-05-02 18:06 2.2M
20260502T12Z_MSC_CAPS_ShowalterIndex_IsbL-0500_RLatLon0.03_PT007H.grib2 2026-05-02 18:06 4.3M
20260502T12Z_MSC_CAPS_Snow-Accum_Sfc_RLatLon0.03_PT007H.grib2 2026-05-02 18:06 2.2M
20260502T12Z_MSC_CAPS_SnowDensity_Sfc_RLatLon0.03_PT007H.grib2 2026-05-02 18:06 1.2M
20260502T12Z_MSC_CAPS_SnowDepthWaterEquivalent_Sfc_RLatLon0.03_PT007H.grib2 2026-05-02 18:06 669K
20260502T12Z_MSC_CAPS_SnowDepth_Sfc_RLatLon0.03_PT007H.grib2 2026-05-02 18:06 1.2M
20260502T12Z_MSC_CAPS_SoilTemp_DBS-0to10cm_RLatLon0.03_PT007H.grib2 2026-05-02 18:06 1.4M
20260502T12Z_MSC_CAPS_SoilTemp_Sfc_RLatLon0.03_PT007H.grib2 2026-05-02 18:06 1.9M
20260502T12Z_MSC_CAPS_SoilVolumetricIceContent_Sfc_RLatLon0.03_PT007H.grib2 2026-05-02 18:06 1.4M
20260502T12Z_MSC_CAPS_SoilVolumetricWaterContent_DBS-0to10cm_RLatLon0.03_PT007H.grib2 2026-05-02 18:06 1.2M
20260502T12Z_MSC_CAPS_SoilVolumetricWaterContent_DBS-0to1cm_RLatLon0.03_PT007H.grib2 2026-05-02 18:06 1.7M
20260502T12Z_MSC_CAPS_SpecificHumidity_AGL-120m_RLatLon0.03_PT007H.grib2 2026-05-02 18:06 1.7M
20260502T12Z_MSC_CAPS_SpecificHumidity_AGL-2m_RLatLon0.03_PT007H.grib2 2026-05-02 18:06 2.1M
20260502T12Z_MSC_CAPS_SpecificHumidity_AGL-40m_RLatLon0.03_PT007H.grib2 2026-05-02 18:06 1.8M
20260502T12Z_MSC_CAPS_SpecificHumidity_AGL-80m_RLatLon0.03_PT007H.grib2 2026-05-02 18:06 1.8M
20260502T12Z_MSC_CAPS_SpecificHumidity_IsbL-0050_RLatLon0.03_PT007H.grib2 2026-05-02 18:06 860K
20260502T12Z_MSC_CAPS_SpecificHumidity_IsbL-0100_RLatLon0.03_PT007H.grib2 2026-05-02 18:06 940K
20260502T12Z_MSC_CAPS_SpecificHumidity_IsbL-0150_RLatLon0.03_PT007H.grib2 2026-05-02 18:06 741K
20260502T12Z_MSC_CAPS_SpecificHumidity_IsbL-0175_RLatLon0.03_PT007H.grib2 2026-05-02 18:06 719K
20260502T12Z_MSC_CAPS_SpecificHumidity_IsbL-0200_RLatLon0.03_PT007H.grib2 2026-05-02 18:06 962K
20260502T12Z_MSC_CAPS_SpecificHumidity_IsbL-0225_RLatLon0.03_PT007H.grib2 2026-05-02 18:06 1.0M
20260502T12Z_MSC_CAPS_SpecificHumidity_IsbL-0250_RLatLon0.03_PT007H.grib2 2026-05-02 18:06 1.0M
20260502T12Z_MSC_CAPS_SpecificHumidity_IsbL-0275_RLatLon0.03_PT007H.grib2 2026-05-02 18:06 1.0M
20260502T12Z_MSC_CAPS_SpecificHumidity_IsbL-0300_RLatLon0.03_PT007H.grib2 2026-05-02 18:06 937K
20260502T12Z_MSC_CAPS_SpecificHumidity_IsbL-0350_RLatLon0.03_PT007H.grib2 2026-05-02 18:06 937K
20260502T12Z_MSC_CAPS_SpecificHumidity_IsbL-0400_RLatLon0.03_PT007H.grib2 2026-05-02 18:06 1.1M
20260502T12Z_MSC_CAPS_SpecificHumidity_IsbL-0450_RLatLon0.03_PT007H.grib2 2026-05-02 18:06 1.0M
20260502T12Z_MSC_CAPS_SpecificHumidity_IsbL-0500_RLatLon0.03_PT007H.grib2 2026-05-02 18:06 1.2M
20260502T12Z_MSC_CAPS_SpecificHumidity_IsbL-0550_RLatLon0.03_PT007H.grib2 2026-05-02 18:06 1.1M
20260502T12Z_MSC_CAPS_SpecificHumidity_IsbL-0600_RLatLon0.03_PT007H.grib2 2026-05-02 18:06 1.3M
20260502T12Z_MSC_CAPS_SpecificHumidity_IsbL-0650_RLatLon0.03_PT007H.grib2 2026-05-02 18:06 1.4M
20260502T12Z_MSC_CAPS_SpecificHumidity_IsbL-0700_RLatLon0.03_PT007H.grib2 2026-05-02 18:06 1.5M
20260502T12Z_MSC_CAPS_SpecificHumidity_IsbL-0750_RLatLon0.03_PT007H.grib2 2026-05-02 18:06 1.3M
20260502T12Z_MSC_CAPS_SpecificHumidity_IsbL-0800_RLatLon0.03_PT007H.grib2 2026-05-02 18:06 1.4M
20260502T12Z_MSC_CAPS_SpecificHumidity_IsbL-0850_RLatLon0.03_PT007H.grib2 2026-05-02 18:06 1.5M
20260502T12Z_MSC_CAPS_SpecificHumidity_IsbL-0875_RLatLon0.03_PT007H.grib2 2026-05-02 18:06 1.7M
20260502T12Z_MSC_CAPS_SpecificHumidity_IsbL-0900_RLatLon0.03_PT007H.grib2 2026-05-02 18:06 1.8M
20260502T12Z_MSC_CAPS_SpecificHumidity_IsbL-0925_RLatLon0.03_PT007H.grib2 2026-05-02 18:06 1.8M
20260502T12Z_MSC_CAPS_SpecificHumidity_IsbL-0950_RLatLon0.03_PT007H.grib2 2026-05-02 18:06 1.9M
20260502T12Z_MSC_CAPS_SpecificHumidity_IsbL-0970_RLatLon0.03_PT007H.grib2 2026-05-02 18:06 1.9M
20260502T12Z_MSC_CAPS_SpecificHumidity_IsbL-0985_RLatLon0.03_PT007H.grib2 2026-05-02 18:06 2.0M
20260502T12Z_MSC_CAPS_SpecificHumidity_IsbL-1000_RLatLon0.03_PT007H.grib2 2026-05-02 18:06 2.0M
20260502T12Z_MSC_CAPS_SpecificHumidity_IsbL-1015_RLatLon0.03_PT007H.grib2 2026-05-02 18:06 2.1M
20260502T12Z_MSC_CAPS_SpecificHumidity_Sfc_RLatLon0.03_PT007H.grib2 2026-05-02 18:06 2.0M
20260502T12Z_MSC_CAPS_StormRelativeHelicity_Sfc_RLatLon0.03_PT007H.grib2 2026-05-02 18:06 2.7M
20260502T12Z_MSC_CAPS_Thickness_IsbL-1000to0500_RLatLon0.03_PT007H.grib2 2026-05-02 18:06 472K
20260502T12Z_MSC_CAPS_TotalCloudCover_Sfc_RLatLon0.03_PT007H.grib2 2026-05-02 18:06 3.3M
20260502T12Z_MSC_CAPS_TurboclineDepth_Sfc_RLatLon0.03_PT007H.nc 2026-05-02 18:11 16M
20260502T12Z_MSC_CAPS_UpwardLongwaveRadiationFlux_NTAtm_RLatLon0.03_PT007H.grib2 2026-05-02 18:06 2.7M
20260502T12Z_MSC_CAPS_UpwardShortwaveRadiationFlux_NTAtm_RLatLon0.03_PT007H.grib2 2026-05-02 18:06 2.5M
20260502T12Z_MSC_CAPS_VerticalVelocity_IsbL-0250_RLatLon0.03_PT007H.grib2 2026-05-02 18:06 912K
20260502T12Z_MSC_CAPS_VerticalVelocity_IsbL-0500_RLatLon0.03_PT007H.grib2 2026-05-02 18:06 870K
20260502T12Z_MSC_CAPS_VerticalVelocity_IsbL-0700_RLatLon0.03_PT007H.grib2 2026-05-02 18:06 1.2M
20260502T12Z_MSC_CAPS_VerticalVelocity_IsbL-0850_RLatLon0.03_PT007H.grib2 2026-05-02 18:06 1.1M
20260502T12Z_MSC_CAPS_VerticalVelocity_IsbL-1000_RLatLon0.03_PT007H.grib2 2026-05-02 18:06 1.4M
20260502T12Z_MSC_CAPS_WindDir_AGL-10m_RLatLon0.03_PT007H.grib2 2026-05-02 18:06 2.3M
20260502T12Z_MSC_CAPS_WindDir_AGL-120m_RLatLon0.03_PT007H.grib2 2026-05-02 18:06 1.2M
20260502T12Z_MSC_CAPS_WindDir_AGL-40m_RLatLon0.03_PT007H.grib2 2026-05-02 18:06 1.3M
20260502T12Z_MSC_CAPS_WindDir_AGL-80m_RLatLon0.03_PT007H.grib2 2026-05-02 18:06 1.2M
20260502T12Z_MSC_CAPS_WindDir_IsbL-0050_RLatLon0.03_PT007H.grib2 2026-05-02 18:06 1.0M
20260502T12Z_MSC_CAPS_WindDir_IsbL-0100_RLatLon0.03_PT007H.grib2 2026-05-02 18:06 1.0M
20260502T12Z_MSC_CAPS_WindDir_IsbL-0150_RLatLon0.03_PT007H.grib2 2026-05-02 18:06 1.0M
20260502T12Z_MSC_CAPS_WindDir_IsbL-0175_RLatLon0.03_PT007H.grib2 2026-05-02 18:06 1.1M
20260502T12Z_MSC_CAPS_WindDir_IsbL-0200_RLatLon0.03_PT007H.grib2 2026-05-02 18:06 1.1M
20260502T12Z_MSC_CAPS_WindDir_IsbL-0225_RLatLon0.03_PT007H.grib2 2026-05-02 18:06 1.1M
20260502T12Z_MSC_CAPS_WindDir_IsbL-0250_RLatLon0.03_PT007H.grib2 2026-05-02 18:06 1.1M
20260502T12Z_MSC_CAPS_WindDir_IsbL-0275_RLatLon0.03_PT007H.grib2 2026-05-02 18:06 1.1M
20260502T12Z_MSC_CAPS_WindDir_IsbL-0300_RLatLon0.03_PT007H.grib2 2026-05-02 18:06 1.1M
20260502T12Z_MSC_CAPS_WindDir_IsbL-0350_RLatLon0.03_PT007H.grib2 2026-05-02 18:06 1.1M
20260502T12Z_MSC_CAPS_WindDir_IsbL-0400_RLatLon0.03_PT007H.grib2 2026-05-02 18:06 1.1M
20260502T12Z_MSC_CAPS_WindDir_IsbL-0450_RLatLon0.03_PT007H.grib2 2026-05-02 18:06 1.2M
20260502T12Z_MSC_CAPS_WindDir_IsbL-0500_RLatLon0.03_PT007H.grib2 2026-05-02 18:06 1.2M
20260502T12Z_MSC_CAPS_WindDir_IsbL-0550_RLatLon0.03_PT007H.grib2 2026-05-02 18:06 1.2M
20260502T12Z_MSC_CAPS_WindDir_IsbL-0600_RLatLon0.03_PT007H.grib2 2026-05-02 18:06 1.2M
20260502T12Z_MSC_CAPS_WindDir_IsbL-0650_RLatLon0.03_PT007H.grib2 2026-05-02 18:06 1.3M
20260502T12Z_MSC_CAPS_WindDir_IsbL-0700_RLatLon0.03_PT007H.grib2 2026-05-02 18:06 1.4M
20260502T12Z_MSC_CAPS_WindDir_IsbL-0750_RLatLon0.03_PT007H.grib2 2026-05-02 18:06 1.4M
20260502T12Z_MSC_CAPS_WindDir_IsbL-0800_RLatLon0.03_PT007H.grib2 2026-05-02 18:06 1.5M
20260502T12Z_MSC_CAPS_WindDir_IsbL-0850_RLatLon0.03_PT007H.grib2 2026-05-02 18:06 1.7M
20260502T12Z_MSC_CAPS_WindDir_IsbL-0875_RLatLon0.03_PT007H.grib2 2026-05-02 18:06 1.7M
20260502T12Z_MSC_CAPS_WindDir_IsbL-0900_RLatLon0.03_PT007H.grib2 2026-05-02 18:06 1.8M
20260502T12Z_MSC_CAPS_WindDir_IsbL-0925_RLatLon0.03_PT007H.grib2 2026-05-02 18:06 1.9M
20260502T12Z_MSC_CAPS_WindDir_IsbL-0950_RLatLon0.03_PT007H.grib2 2026-05-02 18:06 2.0M
20260502T12Z_MSC_CAPS_WindDir_IsbL-0970_RLatLon0.03_PT007H.grib2 2026-05-02 18:06 2.0M
20260502T12Z_MSC_CAPS_WindDir_IsbL-0985_RLatLon0.03_PT007H.grib2 2026-05-02 18:06 2.1M
20260502T12Z_MSC_CAPS_WindDir_IsbL-1000_RLatLon0.03_PT007H.grib2 2026-05-02 18:06 2.2M
20260502T12Z_MSC_CAPS_WindDir_IsbL-1015_RLatLon0.03_PT007H.grib2 2026-05-02 18:06 2.3M
20260502T12Z_MSC_CAPS_WindGust-Max_AGL-10m_RLatLon0.03_PT007H.grib2 2026-05-02 18:06 2.4M
20260502T12Z_MSC_CAPS_WindGust-Min_AGL-10m_RLatLon0.03_PT007H.grib2 2026-05-02 18:06 2.4M
20260502T12Z_MSC_CAPS_WindGust_AGL-10m_RLatLon0.03_PT007H.grib2 2026-05-02 18:06 2.5M
20260502T12Z_MSC_CAPS_WindSpeed_AGL-10m_RLatLon0.03_PT007H.grib2 2026-05-02 18:06 2.1M
20260502T12Z_MSC_CAPS_WindSpeed_AGL-120m_RLatLon0.03_PT007H.grib2 2026-05-02 18:06 1.1M
20260502T12Z_MSC_CAPS_WindSpeed_AGL-40m_RLatLon0.03_PT007H.grib2 2026-05-02 18:06 1.2M
20260502T12Z_MSC_CAPS_WindSpeed_AGL-80m_RLatLon0.03_PT007H.grib2 2026-05-02 18:06 1.2M
20260502T12Z_MSC_CAPS_WindSpeed_IsbL-0050_RLatLon0.03_PT007H.grib2 2026-05-02 18:06 937K
20260502T12Z_MSC_CAPS_WindSpeed_IsbL-0100_RLatLon0.03_PT007H.grib2 2026-05-02 18:06 1.0M
20260502T12Z_MSC_CAPS_WindSpeed_IsbL-0150_RLatLon0.03_PT007H.grib2 2026-05-02 18:06 1.1M
20260502T12Z_MSC_CAPS_WindSpeed_IsbL-0175_RLatLon0.03_PT007H.grib2 2026-05-02 18:06 1.2M
20260502T12Z_MSC_CAPS_WindSpeed_IsbL-0200_RLatLon0.03_PT007H.grib2 2026-05-02 18:06 943K
20260502T12Z_MSC_CAPS_WindSpeed_IsbL-0225_RLatLon0.03_PT007H.grib2 2026-05-02 18:06 1.0M
20260502T12Z_MSC_CAPS_WindSpeed_IsbL-0250_RLatLon0.03_PT007H.grib2 2026-05-02 18:06 1.0M
20260502T12Z_MSC_CAPS_WindSpeed_IsbL-0275_RLatLon0.03_PT007H.grib2 2026-05-02 18:06 1.0M
20260502T12Z_MSC_CAPS_WindSpeed_IsbL-0300_RLatLon0.03_PT007H.grib2 2026-05-02 18:06 1.0M
20260502T12Z_MSC_CAPS_WindSpeed_IsbL-0350_RLatLon0.03_PT007H.grib2 2026-05-02 18:06 1.0M
20260502T12Z_MSC_CAPS_WindSpeed_IsbL-0400_RLatLon0.03_PT007H.grib2 2026-05-02 18:06 1.1M
20260502T12Z_MSC_CAPS_WindSpeed_IsbL-0450_RLatLon0.03_PT007H.grib2 2026-05-02 18:06 1.0M
20260502T12Z_MSC_CAPS_WindSpeed_IsbL-0500_RLatLon0.03_PT007H.grib2 2026-05-02 18:06 1.0M
20260502T12Z_MSC_CAPS_WindSpeed_IsbL-0550_RLatLon0.03_PT007H.grib2 2026-05-02 18:06 1.3M
20260502T12Z_MSC_CAPS_WindSpeed_IsbL-0600_RLatLon0.03_PT007H.grib2 2026-05-02 18:06 1.4M
20260502T12Z_MSC_CAPS_WindSpeed_IsbL-0650_RLatLon0.03_PT007H.grib2 2026-05-02 18:06 1.4M
20260502T12Z_MSC_CAPS_WindSpeed_IsbL-0700_RLatLon0.03_PT007H.grib2 2026-05-02 18:06 1.5M
20260502T12Z_MSC_CAPS_WindSpeed_IsbL-0750_RLatLon0.03_PT007H.grib2 2026-05-02 18:06 1.5M
20260502T12Z_MSC_CAPS_WindSpeed_IsbL-0800_RLatLon0.03_PT007H.grib2 2026-05-02 18:06 1.6M
20260502T12Z_MSC_CAPS_WindSpeed_IsbL-0850_RLatLon0.03_PT007H.grib2 2026-05-02 18:06 1.7M
20260502T12Z_MSC_CAPS_WindSpeed_IsbL-0875_RLatLon0.03_PT007H.grib2 2026-05-02 18:06 1.7M
20260502T12Z_MSC_CAPS_WindSpeed_IsbL-0900_RLatLon0.03_PT007H.grib2 2026-05-02 18:06 1.8M
20260502T12Z_MSC_CAPS_WindSpeed_IsbL-0925_RLatLon0.03_PT007H.grib2 2026-05-02 18:06 1.8M
20260502T12Z_MSC_CAPS_WindSpeed_IsbL-0950_RLatLon0.03_PT007H.grib2 2026-05-02 18:06 1.9M
20260502T12Z_MSC_CAPS_WindSpeed_IsbL-0970_RLatLon0.03_PT007H.grib2 2026-05-02 18:06 2.0M
20260502T12Z_MSC_CAPS_WindSpeed_IsbL-0985_RLatLon0.03_PT007H.grib2 2026-05-02 18:06 2.0M
20260502T12Z_MSC_CAPS_WindSpeed_IsbL-1000_RLatLon0.03_PT007H.grib2 2026-05-02 18:06 2.0M
20260502T12Z_MSC_CAPS_WindSpeed_IsbL-1015_RLatLon0.03_PT007H.grib2 2026-05-02 18:06 2.1M
20260502T12Z_MSC_CAPS_WindU_AGL-10m_RLatLon0.03_PT007H.grib2 2026-05-02 18:06 2.0M
20260502T12Z_MSC_CAPS_WindU_AGL-120m_RLatLon0.03_PT007H.grib2 2026-05-02 18:06 913K
20260502T12Z_MSC_CAPS_WindU_AGL-40m_RLatLon0.03_PT007H.grib2 2026-05-02 18:06 1.2M
20260502T12Z_MSC_CAPS_WindU_AGL-80m_RLatLon0.03_PT007H.grib2 2026-05-02 18:06 1.2M
20260502T12Z_MSC_CAPS_WindU_IsbL-0050_RLatLon0.03_PT007H.grib2 2026-05-02 18:06 952K
20260502T12Z_MSC_CAPS_WindU_IsbL-0100_RLatLon0.03_PT007H.grib2 2026-05-02 18:06 817K
20260502T12Z_MSC_CAPS_WindU_IsbL-0150_RLatLon0.03_PT007H.grib2 2026-05-02 18:06 729K
20260502T12Z_MSC_CAPS_WindU_IsbL-0175_RLatLon0.03_PT007H.grib2 2026-05-02 18:06 864K
20260502T12Z_MSC_CAPS_WindU_IsbL-0200_RLatLon0.03_PT007H.grib2 2026-05-02 18:06 876K
20260502T12Z_MSC_CAPS_WindU_IsbL-0225_RLatLon0.03_PT007H.grib2 2026-05-02 18:06 892K
20260502T12Z_MSC_CAPS_WindU_IsbL-0250_RLatLon0.03_PT007H.grib2 2026-05-02 18:06 698K
20260502T12Z_MSC_CAPS_WindU_IsbL-0275_RLatLon0.03_PT007H.grib2 2026-05-02 18:06 706K
20260502T12Z_MSC_CAPS_WindU_IsbL-0300_RLatLon0.03_PT007H.grib2 2026-05-02 18:06 716K
20260502T12Z_MSC_CAPS_WindU_IsbL-0350_RLatLon0.03_PT007H.grib2 2026-05-02 18:06 728K
20260502T12Z_MSC_CAPS_WindU_IsbL-0400_RLatLon0.03_PT007H.grib2 2026-05-02 18:06 951K
20260502T12Z_MSC_CAPS_WindU_IsbL-0450_RLatLon0.03_PT007H.grib2 2026-05-02 18:06 967K
20260502T12Z_MSC_CAPS_WindU_IsbL-0500_RLatLon0.03_PT007H.grib2 2026-05-02 18:06 1.0M
20260502T12Z_MSC_CAPS_WindU_IsbL-0550_RLatLon0.03_PT007H.grib2 2026-05-02 18:06 1.0M
20260502T12Z_MSC_CAPS_WindU_IsbL-0600_RLatLon0.03_PT007H.grib2 2026-05-02 18:06 931K
20260502T12Z_MSC_CAPS_WindU_IsbL-0650_RLatLon0.03_PT007H.grib2 2026-05-02 18:06 963K
20260502T12Z_MSC_CAPS_WindU_IsbL-0700_RLatLon0.03_PT007H.grib2 2026-05-02 18:06 1.0M
20260502T12Z_MSC_CAPS_WindU_IsbL-0750_RLatLon0.03_PT007H.grib2 2026-05-02 18:06 1.3M
20260502T12Z_MSC_CAPS_WindU_IsbL-0800_RLatLon0.03_PT007H.grib2 2026-05-02 18:06 1.4M
20260502T12Z_MSC_CAPS_WindU_IsbL-0850_RLatLon0.03_PT007H.grib2 2026-05-02 18:06 1.5M
20260502T12Z_MSC_CAPS_WindU_IsbL-0875_RLatLon0.03_PT007H.grib2 2026-05-02 18:06 1.2M
20260502T12Z_MSC_CAPS_WindU_IsbL-0900_RLatLon0.03_PT007H.grib2 2026-05-02 18:06 1.3M
20260502T12Z_MSC_CAPS_WindU_IsbL-0925_RLatLon0.03_PT007H.grib2 2026-05-02 18:06 1.3M
20260502T12Z_MSC_CAPS_WindU_IsbL-0950_RLatLon0.03_PT007H.grib2 2026-05-02 18:06 1.4M
20260502T12Z_MSC_CAPS_WindU_IsbL-0970_RLatLon0.03_PT007H.grib2 2026-05-02 18:06 1.4M
20260502T12Z_MSC_CAPS_WindU_IsbL-0985_RLatLon0.03_PT007H.grib2 2026-05-02 18:06 1.8M
20260502T12Z_MSC_CAPS_WindU_IsbL-1000_RLatLon0.03_PT007H.grib2 2026-05-02 18:06 1.9M
20260502T12Z_MSC_CAPS_WindU_IsbL-1015_RLatLon0.03_PT007H.grib2 2026-05-02 18:06 2.0M
20260502T12Z_MSC_CAPS_WindV_AGL-10m_RLatLon0.03_PT007H.grib2 2026-05-02 18:06 2.0M
20260502T12Z_MSC_CAPS_WindV_AGL-120m_RLatLon0.03_PT007H.grib2 2026-05-02 18:06 1.2M
20260502T12Z_MSC_CAPS_WindV_AGL-40m_RLatLon0.03_PT007H.grib2 2026-05-02 18:06 1.2M
20260502T12Z_MSC_CAPS_WindV_AGL-80m_RLatLon0.03_PT007H.grib2 2026-05-02 18:06 1.2M
20260502T12Z_MSC_CAPS_WindV_IsbL-0050_RLatLon0.03_PT007H.grib2 2026-05-02 18:06 771K
20260502T12Z_MSC_CAPS_WindV_IsbL-0100_RLatLon0.03_PT007H.grib2 2026-05-02 18:06 1.0M
20260502T12Z_MSC_CAPS_WindV_IsbL-0150_RLatLon0.03_PT007H.grib2 2026-05-02 18:06 728K
20260502T12Z_MSC_CAPS_WindV_IsbL-0175_RLatLon0.03_PT007H.grib2 2026-05-02 18:06 861K
20260502T12Z_MSC_CAPS_WindV_IsbL-0200_RLatLon0.03_PT007H.grib2 2026-05-02 18:06 877K
20260502T12Z_MSC_CAPS_WindV_IsbL-0225_RLatLon0.03_PT007H.grib2 2026-05-02 18:06 896K
20260502T12Z_MSC_CAPS_WindV_IsbL-0250_RLatLon0.03_PT007H.grib2 2026-05-02 18:06 916K
20260502T12Z_MSC_CAPS_WindV_IsbL-0275_RLatLon0.03_PT007H.grib2 2026-05-02 18:06 924K
20260502T12Z_MSC_CAPS_WindV_IsbL-0300_RLatLon0.03_PT007H.grib2 2026-05-02 18:06 932K
20260502T12Z_MSC_CAPS_WindV_IsbL-0350_RLatLon0.03_PT007H.grib2 2026-05-02 18:06 947K
20260502T12Z_MSC_CAPS_WindV_IsbL-0400_RLatLon0.03_PT007H.grib2 2026-05-02 18:06 953K
20260502T12Z_MSC_CAPS_WindV_IsbL-0450_RLatLon0.03_PT007H.grib2 2026-05-02 18:06 969K
20260502T12Z_MSC_CAPS_WindV_IsbL-0500_RLatLon0.03_PT007H.grib2 2026-05-02 18:06 868K
20260502T12Z_MSC_CAPS_WindV_IsbL-0550_RLatLon0.03_PT007H.grib2 2026-05-02 18:06 898K
20260502T12Z_MSC_CAPS_WindV_IsbL-0600_RLatLon0.03_PT007H.grib2 2026-05-02 18:06 1.2M
20260502T12Z_MSC_CAPS_WindV_IsbL-0650_RLatLon0.03_PT007H.grib2 2026-05-02 18:06 1.2M
20260502T12Z_MSC_CAPS_WindV_IsbL-0700_RLatLon0.03_PT007H.grib2 2026-05-02 18:06 1.3M
20260502T12Z_MSC_CAPS_WindV_IsbL-0750_RLatLon0.03_PT007H.grib2 2026-05-02 18:06 1.3M
20260502T12Z_MSC_CAPS_WindV_IsbL-0800_RLatLon0.03_PT007H.grib2 2026-05-02 18:06 1.1M
20260502T12Z_MSC_CAPS_WindV_IsbL-0850_RLatLon0.03_PT007H.grib2 2026-05-02 18:06 1.2M
20260502T12Z_MSC_CAPS_WindV_IsbL-0875_RLatLon0.03_PT007H.grib2 2026-05-02 18:06 1.2M
20260502T12Z_MSC_CAPS_WindV_IsbL-0900_RLatLon0.03_PT007H.grib2 2026-05-02 18:06 1.2M
20260502T12Z_MSC_CAPS_WindV_IsbL-0925_RLatLon0.03_PT007H.grib2 2026-05-02 18:06 1.6M
20260502T12Z_MSC_CAPS_WindV_IsbL-0950_RLatLon0.03_PT007H.grib2 2026-05-02 18:06 1.7M
20260502T12Z_MSC_CAPS_WindV_IsbL-0970_RLatLon0.03_PT007H.grib2 2026-05-02 18:06 1.7M
20260502T12Z_MSC_CAPS_WindV_IsbL-0985_RLatLon0.03_PT007H.grib2 2026-05-02 18:06 1.8M
20260502T12Z_MSC_CAPS_WindV_IsbL-1000_RLatLon0.03_PT007H.grib2 2026-05-02 18:06 1.8M
20260502T12Z_MSC_CAPS_WindV_IsbL-1015_RLatLon0.03_PT007H.grib2 2026-05-02 18:06 1.8M